Date String (YYYY-MM-DD hh:mm:ss) UTC,Instrument flags,absolute air pressure of the measurement (hPa),sample flow rate (lpm),inlet stack bypass flow (lpm),air temperature of the measurement (°C),ambient temperature measured by the external sensor (°C),aerosol sample conditioner tube jacket temperature (°C),OPC LED temperature (°C),internal box temperature (°C),relative humidity of the measurement (%),span deviation,mass concentration of particles derived from Lorenz-Mie calculation of OPC scattering (μg/m³),mass concentration of particles derived from Lorenz-Mie calculation of OPC scattering (μg/m³),mass concentration of particles derived from Lorenz-Mie calculation of OPC scattering (μg/m³)
DateTimeUTC,F1_M11,P_M11,Q1_M11,Q2_M11,T1_M11,T2_M11,T3_M11,T4_M11,T5_M11,U1_M11,ZSPAN_M11,X2_M11,X0_M11,X1_M11
2023-09-02 23:00:00,SystemResetWarning,0832.6,5.00,000.00,027.5,025.9,000.0,035.7,029.3,29.8,0000.0,0004.95,0016.16,0003.90
2023-09-02 23:01:00,SystemResetWarning,0832.7,5.00,000.00,027.6,026.2,000.0,035.7,029.4,29.4,0000.0,0004.94,0015.71,0003.91
2023-09-02 23:02:00,SystemResetWarning,0832.7,4.99,000.00,027.6,026.4,000.0,035.8,029.4,29.4,0000.0,0004.98,0015.44,0003.92
2023-09-02 23:03:00,SystemResetWarning,0832.6,4.99,000.00,027.6,025.4,000.0,035.7,029.1,29.2,0000.0,0005.02,0015.59,0003.94
2023-09-02 23:04:00,SystemResetWarning,0832.6,5.00,000.00,027.5,024.2,000.0,035.7,028.8,29.5,0000.0,0005.00,0015.75,0003.94
2023-09-02 23:05:00,SystemResetWarning,0832.6,5.01,000.00,027.4,024.2,000.0,035.6,028.8,30.2,0000.0,0004.97,0016.44,0003.93
2023-09-02 23:06:00,SystemResetWarning,0832.7,5.01,000.00,027.4,024.6,000.0,035.7,028.8,30.8,0000.0,0005.03,0016.30,0003.94
2023-09-02 23:07:00,SystemResetWarning,0832.6,5.00,000.00,027.4,025.0,000.0,035.7,028.9,31.1,0000.0,0005.05,0016.27,0003.94
2023-09-02 23:08:00,SystemResetWarning,0832.6,5.00,000.00,027.5,025.4,000.0,035.7,029.1,31.6,0000.0,0005.10,0016.47,0003.94
2023-09-02 23:09:00,SystemResetWarning,0832.7,5.00,000.00,027.5,025.8,000.0,035.7,029.3,31.2,0000.0,0005.14,0016.82,0003.93
2023-09-02 23:10:00,SystemResetWarning,0832.7,5.01,000.00,027.6,026.2,000.0,035.8,029.4,30.1,0000.0,0005.17,0017.60,0003.91
2023-09-02 23:11:00,SystemResetWarning,0832.7,4.99,000.00,027.6,025.9,000.0,035.8,029.2,29.7,0000.0,0005.17,0017.20,0003.90
2023-09-02 23:12:00,SystemResetWarning,0832.7,5.00,000.00,027.5,024.6,000.0,035.7,028.8,29.7,0000.0,0005.14,0016.87,0003.90
2023-09-02 23:13:00,SystemResetWarning,0832.7,5.02,000.00,027.4,024.0,000.0,035.6,028.6,29.4,0000.0,0005.11,0017.25,0003.88
2023-09-02 23:14:00,SystemResetWarning,0832.7,5.00,000.00,027.4,024.2,000.0,035.6,028.6,29.7,0000.0,0005.02,0016.68,0003.86
2023-09-02 23:15:00,SystemResetWarning,0832.8,5.00,000.00,027.3,024.6,000.0,035.6,028.8,29.4,0000.0,0005.07,0016.85,0003.85
2023-09-02 23:16:00,SystemResetWarning,0832.8,5.00,000.00,027.4,025.1,000.0,035.7,029.0,29.3,0000.0,0005.08,0015.62,0003.86
2023-09-02 23:17:00,SystemResetWarning,0833.1,5.00,000.00,027.4,025.5,000.0,035.7,029.1,29.3,0000.0,0005.08,0016.07,0003.88
2023-09-02 23:18:00,SystemResetWarning,0832.9,4.99,000.00,027.5,025.9,000.0,035.7,029.3,29.8,0000.0,0005.09,0015.88,0003.88
2023-09-02 23:19:00,SystemResetWarning,0833.3,5.00,000.00,027.6,026.2,000.0,035.7,029.4,29.9,0000.0,0005.10,0016.35,0003.89
2023-09-02 23:20:00,SystemResetWarning,0833.4,5.00,000.00,027.6,026.1,000.0,035.7,029.3,30.1,0000.0,0005.07,0015.51,0003.88
2023-09-02 23:21:00,SystemResetWarning,0832.9,4.99,000.00,027.5,024.7,000.0,035.7,028.8,30.1,0000.0,0005.08,0015.77,0003.89
2023-09-02 23:22:00,SystemResetWarning,0833.2,5.00,000.00,027.4,024.0,000.0,035.6,028.6,29.8,0000.0,0005.14,0016.42,0003.89
2023-09-02 23:23:00,SystemResetWarning,0833.4,5.01,000.00,027.3,024.2,000.0,035.6,028.7,29.4,0000.0,0005.22,0016.42,0003.90
2023-09-02 23:24:00,SystemResetWarning,0833.0,5.00,000.00,027.3,024.6,000.0,035.6,028.8,29.5,0000.0,0005.22,0015.25,0003.90
2023-09-02 23:25:00,SystemResetWarning,0833.0,5.00,000.00,027.4,025.1,000.0,035.6,028.9,29.3,0000.0,0005.25,0015.37,0003.91
2023-09-02 23:26:00,SystemResetWarning,0832.9,5.01,000.00,027.4,025.5,000.0,035.7,029.1,28.2,0000.0,0005.25,0016.39,0003.91
2023-09-02 23:27:00,SystemResetWarning,0833.1,4.99,000.00,027.5,025.9,000.0,035.7,029.2,28.1,0000.0,0005.25,0016.66,0003.91
2023-09-02 23:28:00,SystemResetWarning,0833.1,4.99,000.00,027.5,026.2,000.0,035.7,029.3,28.7,0000.0,0005.21,0016.54,0003.89
2023-09-02 23:29:00,SystemResetWarning,0833.0,5.00,000.00,027.6,026.5,000.0,035.8,029.4,28.7,0000.0,0005.22,0016.97,0003.87
2023-09-02 23:30:00,SystemResetWarning,0833.1,4.99,000.00,027.6,025.7,000.0,035.7,029.1,29.0,0000.0,0005.24,0016.76,0003.87
2023-09-02 23:31:00,SystemResetWarning,0832.9,5.01,000.00,027.5,024.4,000.0,035.7,028.7,28.8,0000.0,0005.26,0017.55,0003.87
2023-09-02 23:32:00,SystemResetWarning,0832.9,5.00,000.00,027.4,024.1,000.0,035.6,028.7,27.7,0000.0,0005.19,0016.95,0003.87
2023-09-02 23:33:00,SystemResetWarning,0833.2,5.01,000.00,027.3,024.4,000.0,035.6,028.7,27.3,0000.0,0005.13,0016.20,0003.88
2023-09-02 23:34:00,SystemResetWarning,0833.4,5.01,000.00,027.3,024.8,000.0,035.6,028.8,27.1,0000.0,0005.04,0015.86,0003.88
2023-09-02 23:35:00,SystemResetWarning,0833.1,4.99,000.00,027.4,025.2,000.0,035.7,029.0,27.0,0000.0,0005.04,0015.69,0003.88
2023-09-02 23:36:00,SystemResetWarning,0833.1,5.00,000.00,027.4,025.7,000.0,035.7,029.2,27.0,0000.0,0005.07,0015.71,0003.88
2023-09-02 23:37:00,SystemResetWarning,0833.2,5.00,000.00,027.5,026.1,000.0,035.7,029.3,26.6,0000.0,0005.04,0015.07,0003.88
2023-09-02 23:38:00,SystemResetWarning,0833.2,5.00,000.00,027.6,026.4,000.0,035.8,029.4,26.3,0000.0,0005.03,0015.14,0003.87
2023-09-02 23:39:00,SystemResetWarning,0833.2,5.00,000.00,027.7,026.4,000.0,035.8,029.4,27.4,0000.0,0004.99,0014.88,0003.87
2023-09-02 23:40:00,SystemResetWarning,0833.2,4.99,000.00,027.6,025.2,000.0,035.7,028.9,29.7,0000.0,0004.99,0014.10,0003.87
2023-09-02 23:41:00,SystemResetWarning,0833.2,5.01,000.00,027.5,024.2,000.0,035.7,028.6,30.3,0000.0,0004.99,0013.73,0003.86
2023-09-02 23:42:00,SystemResetWarning,0833.0,5.01,000.00,027.4,024.3,000.0,035.7,028.7,30.8,0000.0,0004.92,0012.77,0003.86
2023-09-02 23:43:00,SystemResetWarning,0833.1,5.00,000.00,027.4,024.6,000.0,035.7,028.7,30.4,0000.0,0004.92,0012.98,0003.85
2023-09-02 23:44:00,SystemResetWarning,0833.0,5.00,000.00,027.4,025.1,000.0,035.7,028.9,28.8,0000.0,0004.92,0012.31,0003.85
2023-09-02 23:45:00,SystemResetWarning,0833.0,5.00,000.00,027.4,025.5,000.0,035.7,029.1,28.2,0000.0,0004.91,0012.37,0003.84
2023-09-02 23:46:00,SystemResetWarning,0833.1,5.00,000.00,027.5,025.8,000.0,035.7,029.2,28.1,0000.0,0004.94,0012.86,0003.84
2023-09-02 23:47:00,SystemResetWarning,0833.2,5.00,000.00,027.5,026.2,000.0,035.8,029.3,28.0,0000.0,0004.90,0012.69,0003.85
2023-09-02 23:48:00,SystemResetWarning,0833.1,5.01,000.00,027.6,026.5,000.0,035.8,029.4,28.7,0000.0,0004.90,0011.99,0003.85
2023-09-02 23:49:00,SystemResetWarning,0832.9,4.99,000.00,027.7,025.9,000.0,035.8,029.2,28.8,0000.0,0004.89,0011.34,0003.86
2023-09-02 23:50:00,SystemResetWarning,0832.9,4.99,000.00,027.5,024.5,000.0,035.7,028.7,29.1,0000.0,0004.92,0011.67,0003.87
2023-09-02 23:51:00,SystemResetWarning,0833.1,5.01,000.00,027.4,024.1,000.0,035.7,028.6,29.0,0000.0,0004.91,0011.58,0003.88
2023-09-02 23:52:00,SystemResetWarning,0833.0,5.02,000.00,027.4,024.3,000.0,035.7,028.7,27.8,0000.0,0004.85,0011.38,0003.88
2023-09-02 23:53:00,SystemResetWarning,0833.0,4.99,000.00,027.4,024.7,000.0,035.7,028.8,27.8,0000.0,0004.84,0011.41,0003.88
2023-09-02 23:54:00,SystemResetWarning,0832.9,5.00,000.00,027.4,025.2,000.0,035.7,029.0,26.0,0000.0,0004.83,0011.20,0003.87
2023-09-02 23:55:00,SystemResetWarning,0832.9,5.00,000.00,027.5,025.6,000.0,035.7,029.1,25.1,0000.0,0004.78,0011.72,0003.87
2023-09-02 23:56:00,SystemResetWarning,0832.8,5.00,000.00,027.5,026.0,000.0,035.8,029.3,26.1,0000.0,0004.74,0011.87,0003.86
2023-09-02 23:57:00,SystemResetWarning,0833.2,4.99,000.00,027.6,026.3,000.0,035.8,029.4,26.6,0000.0,0004.68,0011.31,0003.84
2023-09-02 23:58:00,SystemResetWarning,0833.1,4.99,000.00,027.7,026.4,000.0,035.8,029.4,26.3,0000.0,0004.63,0011.03,0003.82
2023-09-02 23:59:00,SystemResetWarning,0832.5,5.00,000.00,027.6,025.3,000.0,035.8,029.1,25.7,0000.0,0004.56,0010.89,0003.79
